Temperature
19 18 18 18 18 18 17 17 17 18 18 17 17 17 17 17 17 17 17 17 17 17 17 16 16 16 16 16 16 16 16 16 16 16 16 16 16 16 16 16 16 16 16
18 18 18 18 18 17 17 17 17 17 17 17 17 17 18 17 17 17 17 17 17 17 16 16 16 16 16 16 16 16 15 16 15 16 16 16 16 16 16 16 16 16 16
18 18 18 18 17 17 17 17 17 17 17 17 17 17 17 17 17 17 17 17 16 16 16 16 16 16 16 16 15 15 15 15 15 16 16 16 16 16 16 16 16 16 16
18 18 18 18 17 17 17 17 17 17 17 17 17 17 17 17 17 17 17 17 16 16 16 16 16 16 16 15 15 15 15 15 15 15 16 16 16 16 16 16 16 16 16
18 18 18 18 18 18 17 17 17 17 17 17 17 17 17 17 17 17 17 16 16 16 16 16 16 16 15 15 15 15 15 15 15 15 15 16 16 16 16 16 15 16 16
19 19 18 18 17 17 17 17 17 17 17 17 17 17 17 17 17 17 17 16 16 16 16 16 16 15 15 15 15 15 15 15 15 15 15 15 15 15 16 15 15 15 15
19 19 18 18 17 17 17 17 17 17 17 17 17 17 17 17 17 17 17 17 16 16 16 16 16 15 15 15 15 15 15 15 15 15 15 15 15 15 15 15 15 15 15
19 19 19 18 18 17 17 17 17 17 17 17 17 17 17 17 17 17 17 17 17 17 16 16 16 15 15 15 15 15 15 14 14 15 15 15 15 15 15 15 15 15 15
19 19 19 18 18 18 18 17 17 17 17 17 17 17 17 17 17 17 17 17 17 16 16 16 16 15 15 15 15 15 15 14 14 14 14 14 14 14 14 14 14 14 14
19 19 19 19 19 18 18 18 18 18 17 17 17 17 17 17 17 17 17 17 17 16 16 16 16 15 15 15 15 15 15 14 14 14 14 14 14 14 14 14 14 14 14
20 20 19 19 19 19 18 18 18 18 18 17 17 17 17 17 17 17 17 17 17 16 16 16 16 15 15 15 15 15 15 15 14 14 14 14 14 14 14 14 14 14 14
20 20 20 19 19 19 19 18 18 18 18 18 17 17 17 17 17 17 17 17 16 16 16 16 16 16 15 15 15 15 15 15 15 14 14 14 14 14 14 14 14 14 14
20 20 20 20 19 19 19 19 18 18 18 18 17 17 17 17 17 17 17 17 16 16 16 16 16 16 15 15 15 15 15 15 15 15 14 14 14 14 14 14 14 14 13
20 20 20 20 20 19 19 19 19 18 18 18 17 17 17 17 17 17 17 17 16 16 16 16 16 16 15 15 15 15 15 15 15 15 14 14 14 14 14 14 14 14 13
20 20 20 20 20 20 19 19 19 18 18 18 18 18 18 18 17 17 17 17 16 16 16 16 16 16 15 15 15 15 15 15 15 15 14 14 14 14 14 14 14 13 13
19 20 20 20 20 20 20 19 19 19 18 18 18 18 18 17 17 17 17 16 16 16 16 16 16 16 15 15 15 15 15 15 15 15 14 14 14 14 14 14 14 13 13
19 20 19 20 20 20 20 19 19 19 18 18 18 18 18 17 17 17 17 17 16 16 16 16 16 16 15 15 15 15 15 14 14 14 14 14 14 14 14 14 13 13 13
19 19 19 20 20 20 19 19 19 18 18 18 18 18 17 17 17 17 17 17 16 16 16 16 16 15 15 15 15 15 14 14 14 14 14 14 14 14 14 13 13 13 13
19 19 19 19 19 19 19 19 18 18 18 18 18 18 17 17 17 17 17 16 16 16 16 15 15 15 15 15 14 14 14 14 14 14 13 13 13 13 13 13 13 13 13
18 19 19 19 19 19 18 18 18 18 17 17 17 17 17 17 17 16 16 16 15 15 15 15 15 15 15 14 14 14 13 13 13 13 13 13 13 13 13 12 12 13 13
18 18 18 18 18 18 18 18 17 17 17 16 16 16 16 16 16 16 15 15 15 15 14 14 14 14 14 14 14 13 13 13 13 13 13 13 12 12 12 12 12 12 12
17 17 17 17 17 17 17 17 16 16 16 16 15 15 15 15 15 15 15 15 14 14 14 13 13 13 13 13 13 13 12 12 12 12 12 12 12 11 11 11 11 11 11
16 16 16 16 16 16 16 16 15 15 15 15 15 15 14 14 14 14 14 14 13 13 13 13 13 13 12 12 12 12 12 12 11 11 11 11 11 11 11 10 10 10 10
15 15 15 15 14 14 14 14 14 14 14 14 14 14 14 14 13 13 13 13 12 12 12 12 12 12 12 12 11 11 11 11 11 11 10 10 10 10 10 10 10 10 10
14 14 14 14 13 13 13 13 13 13 13 13 13 13 13 13 13 12 12 12 12 12 12 12 11 11 11 11 11 11 10 10 10 10 10 10 10 10 10 10 10 9 9
13 13 13 13 13 13 13 13 13 13 13 13 13 12 12 12 12 12 12 12 12 12 11 11 11 11 11 11 10 10 10 10 10 10 9 9 9 9 9 9 9 9 9
Wind_Speed
7 7 7 7 7 7 8 9 9 9 8 6 6 6 5 4 4 4 7 9 10 11 9 6 6 6 4 4 4 3 3 2 1 2 3 3 3 3 2 2 1 1 1
5 6 7 8 8 9 9 8 9 9 8 7 5 4 4 4 3 3 6 8 10 11 9 8 6 5 5 5 4 3 3 2 2 2 2 2 3 3 3 3 2 2 2
8 8 8 8 9 10 10 10 10 10 9 8 5 5 4 3 3 4 4 6 10 11 10 10 7 6 5 5 4 4 4 3 1 1 3 3 3 1 2 3 3 3 2
7 7 7 8 9 10 11 10 10 10 9 10 9 10 7 6 5 5 5 5 8 9 10 10 9 6 5 5 4 4 3 4 2 1 2 1 2 3 1 2 2 3 3
9 8 8 8 8 8 9 10 10 10 10 10 10 10 7 5 4 4 6 5 4 7 9 10 8 6 5 5 5 4 4 3 3 3 2 2 2 2 2 1 2 2 2
8 7 6 6 6 7 8 9 10 9 9 10 10 10 10 9 8 7 7 5 4 4 6 8 7 7 5 6 5 5 5 3 3 3 2 3 2 2 2 2 0 1 2
8 7 7 7 7 8 8 8 9 9 9 10 10 10 10 10 10 9 9 7 5 4 6 6 6 6 6 6 6 5 4 4 4 4 2 2 2 2 3 3 2 0 1
8 9 9 9 8 9 9 9 9 9 9 10 10 9 10 8 7 8 8 9 7 6 7 7 7 7 7 7 6 4 4 4 4 4 4 2 2 3 3 3 3 1 1
9 9 9 9 9 9 9 10 10 9 9 10 9 9 9 9 8 8 8 7 6 6 8 8 8 7 7 7 6 5 5 5 4 4 4 3 2 2 2 3 3 4 2
8 9 9 9 8 9 8 9 9 9 8 9 9 9 9 8 8 8 8 8 8 7 9 9 8 7 7 7 6 5 5 5 4 4 4 3 2 3 3 3 2 3 3
8 9 8 8 7 7 8 9 9 8 8 8 8 8 8 8 7 7 8 8 7 8 9 9 9 9 8 7 7 6 6 6 5 4 5 5 4 3 3 3 3 3 3
7 7 7 7 7 8 8 9 9 8 8 8 8 8 7 7 7 7 7 7 8 8 9 8 9 9 9 8 9 8 8 8 7 7 6 6 5 5 4 4 4 4 4
6 6 6 7 7 8 7 8 8 8 8 8 8 8 7 7 8 7 7 7 7 7 8 8 9 9 9 9 9 9 8 9 8 8 8 7 6 6 5 5 5 4 4
7 7 7 7 7 7 7 7 7 7 8 9 9 9 9 9 8 7 7 7 8 8 8 9 10 10 9 10 9 9 9 8 8 8 8 8 8 8 7 6 6 5 4
7 8 8 7 7 7 6 7 7 7 8 9 9 9 8 8 7 7 7 7 7 8 8 8 8 8 8 9 9 9 9 8 8 7 7 8 9 10 8 6 6 6 5
7 8 7 7 8 8 8 7 7 7 8 8 8 7 6 7 7 7 6 6 6 6 7 8 8 8 8 10 13 11 8 8 8 8 7 7 8 9 11 12 10 9 8
6 7 7 7 7 7 7 7 6 6 7 7 7 7 7 7 7 7 6 7 7 6 6 7 7 8 9 11 12 13 8 8 8 8 7 6 6 7 7 8 9 10 12
4 4 5 5 5 5 5 5 5 6 6 6 6 6 7 7 6 6 7 6 5 6 6 7 7 7 8 10 11 11 8 6 7 7 7 7 6 6 6 6 6 7 8
4 4 4 4 5 5 5 6 6 5 5 5 5 5 6 7 7 7 7 6 6 6 6 5 6 7 7 9 10 9 5 6 7 6 6 7 6 7 7 5 6 7 7
6 6 6 7 6 4 6 8 6 5 4 3 4 4 5 6 6 6 5 5 5 5 5 5 5 6 6 6 9 9 5 5 5 5 5 7 8 7 6 6 6 8 7
8 8 8 8 5 5 7 8 6 4 3 3 3 4 4 4 3 3 3 3 4 4 3 3 3 3 4 4 7 9 6 6 5 5 4 4 7 7 7 7 7 9 7
10 9 10 9 7 7 9 9 6 4 5 6 6 5 3 2 2 2 1 1 2 3 3 2 2 1 1 2 4 6 7 5 4 4 3 3 4 6 7 6 7 9 7
10 9 10 11 9 8 9 9 5 5 7 7 6 6 5 4 4 3 2 2 1 1 1 1 1 1 0 1 1 3 4 4 3 2 2 3 3 4 4 6 7 6 4
9 9 11 11 10 9 9 7 6 7 8 8 6 6 6 5 5 3 3 2 1 1 1 1 1 1 0 1 1 1 1 1 1 1 1 2 3 3 4 4 4 4 5
9 10 11 11 9 9 9 8 7 8 8 7 6 6 5 4 4 3 3 2 1 1 2 2 2 2 1 2 3 3 2 1 1 1 0 1 2 3 3 4 4 4 4
9 10 11 10 9 9 8 7 6 7 8 7 6 5 4 3 3 3 4 6 3 3 2 2 2 1 2 2 1 2 3 3 3 2 2 3 3 4 4 5 5 5 5
Wind_Direction
192 181 174 172 170 168 169 173 171 168 159 156 163 164 169 164 159 162 159 161 160 157 148 142 136 139 138 139 132 114 97 64 57 81 41 20 28 46 35 20 16 354 312
180 179 174 176 178 175 173 173 174 173 173 170 166 166 155 153 153 149 153 161 161 159 156 146 146 145 133 131 137 132 119 76 57 120 105 48 14 10 23 24 33 18 13
188 185 183 185 184 182 180 181 183 184 178 165 149 134 112 104 127 148 160 167 166 162 156 155 152 151 147 151 154 148 140 136 70 67 136 143 187 315 353 15 28 26 35
190 187 186 186 191 191 185 183 181 182 175 167 167 165 170 173 177 166 162 159 165 161 159 159 157 155 151 154 161 152 144 140 141 93 61 102 144 142 82 349 4 22 34
191 188 188 191 190 186 182 181 178 180 175 174 175 174 172 165 145 143 148 151 155 161 163 162 158 156 158 162 154 147 147 146 151 153 139 104 76 87 136 146 341 359 7
191 186 180 176 180 177 178 177 177 180 176 173 172 175 170 160 155 162 164 160 157 158 163 163 162 164 165 166 162 157 153 150 145 149 153 153 149 153 141 151 185 317 325
184 180 176 179 183 179 180 177 172 175 177 175 175 176 173 170 172 172 173 166 166 174 177 168 167 170 175 170 161 157 162 162 158 161 163 162 159 151 144 138 150 202 318
185 186 185 184 186 182 178 175 173 175 178 179 180 179 175 178 181 178 174 179 184 182 175 173 174 177 175 172 165 162 172 170 169 169 162 158 169 167 164 156 150 141 331
188 188 186 185 184 183 182 178 176 176 179 181 176 178 176 180 183 180 176 180 180 176 173 175 176 177 176 171 164 171 177 171 178 177 172 170 179 179 175 164 161 157 190
189 186 184 185 185 182 177 176 177 179 178 177 178 184 181 182 181 176 180 183 181 173 171 177 178 178 179 177 173 175 178 173 182 180 177 182 185 180 175 174 173 168 174
192 189 185 182 178 168 168 176 179 177 177 180 179 176 177 177 176 182 189 187 182 177 179 182 182 184 186 184 182 187 183 186 191 188 190 200 191 189 186 180 177 181 177
183 176 175 170 169 170 172 177 182 184 183 176 168 170 170 171 178 189 193 187 185 186 186 184 186 192 193 190 191 196 194 194 199 201 199 209 202 202 199 195 199 202 200
167 159 158 169 174 176 176 180 182 183 175 168 167 171 174 179 188 193 190 185 187 188 186 185 193 198 197 196 199 200 200 203 207 205 206 212 203 213 211 209 213 215 212
170 168 170 176 176 175 176 179 182 177 170 169 174 183 187 191 194 190 187 188 188 191 193 195 199 200 199 200 201 202 204 208 211 211 211 212 209 216 215 216 220 218 217
172 176 179 178 172 170 174 179 182 177 173 173 184 195 190 186 185 187 191 189 190 198 198 199 202 201 201 206 202 204 207 210 214 215 217 220 219 219 216 220 221 215 220
182 177 174 173 177 180 182 182 183 181 172 178 191 189 177 178 185 188 187 186 190 191 191 198 200 203 213 211 205 202 207 208 212 219 224 228 228 231 229 231 227 214 219
173 174 176 177 182 184 180 178 179 166 169 182 186 180 178 185 191 187 180 187 191 188 191 198 200 212 220 214 208 205 203 210 216 220 223 230 231 223 231 237 239 234 230
148 158 163 166 167 165 166 161 152 152 165 175 182 181 182 188 184 181 189 193 187 189 199 204 206 214 225 216 210 204 203 212 221 222 223 227 236 231 223 232 245 250 248
116 116 122 127 128 135 145 136 133 141 150 163 173 177 177 180 181 191 196 193 189 197 202 206 206 215 229 217 212 203 205 219 228 229 226 225 231 233 223 228 248 263 268
85 89 90 89 96 107 121 123 127 129 145 164 166 158 160 168 182 193 195 190 191 205 209 215 214 220 228 215 206 198 207 222 233 232 230 229 231 235 227 227 239 258 269
83 85 84 83 83 100 112 114 113 123 137 124 115 118 134 153 171 180 184 184 186 189 198 213 222 220 225 218 202 192 200 214 223 234 238 236 231 239 238 230 234 244 259
78 85 87 79 70 85 100 98 95 95 93 94 92 87 82 90 110 107 118 148 169 184 191 198 223 232 224 206 200 196 205 213 217 233 240 243 242 250 252 246 247 254 259
77 80 87 80 67 70 90 97 89 84 87 86 82 77 70 60 59 73 75 73 115 157 179 183 207 237 167 106 148 180 203 215 223 249 256 266 266 270 266 258 263 264 251
74 79 82 79 68 61 70 78 75 78 82 79 72 70 72 64 55 58 71 87 98 124 144 162 198 215 215 194 167 164 188 186 203 255 294 297 285 272 266 274 270 254 248
76 77 82 80 72 65 62 61 71 83 83 78 71 65 61 62 56 51 52 71 81 175 172 195 206 204 229 234 199 184 194 190 186 167 241 272 271 269 270 268 265 263 261
79 79 77 77 72 69 63 53 61 79 83 73 63 62 60 56 58 59 48 45 52 51 79 128 156 211 218 197 179 207 217 215 188 169 237 254 257 262 268 273 280 274 270
Height
1481 1483 1486 1488 1491 1493 1496 1500 1504 1509 1514 1518 1523 1527 1531 1535 1539 1542 1544 1547 1549 1551 1553 1555 1556 1558 1560 1561 1562 1563 1564 1564 1565 1566 1567 1568 1569 1570 1571 1572 1573 1573 1574
1480 1482 1483 1486 1489 1491 1494 1498 1502 1507 1512 1516 1521 1525 1529 1533 1537 1540 1543 1546 1548 1550 1552 1554 1556 1557 1559 1560 1561 1562 1563 1563 1564 1565 1566 1567 1569 1569 1570 1571 1572 1573 1573
1477 1479 1482 1484 1486 1489 1492 1495 1500 1504 1509 1514 1519 1524 1528 1531 1534 1537 1541 1544 1546 1549 1551 1553 1555 1556 1558 1559 1560 1561 1562 1563 1564 1564 1566 1566 1567 1568 1569 1570 1571 1572 1572
1475 1477 1480 1481 1483 1485 1489 1493 1498 1502 1507 1511 1516 1520 1523 1527 1532 1535 1539 1542 1545 1547 1549 1551 1553 1555 1556 1557 1559 1560 1561 1562 1563 1563 1564 1565 1565 1567 1568 1569 1570 1571 1571
1473 1475 1477 1479 1481 1483 1487 1490 1495 1499 1504 1509 1514 1518 1522 1525 1530 1534 1537 1540 1543 1545 1548 1550 1552 1553 1555 1556 1557 1558 1559 1560 1561 1562 1563 1564 1564 1565 1566 1567 1569 1570 1570
1470 1473 1475 1478 1480 1482 1485 1489 1492 1497 1502 1506 1511 1515 1519 1523 1528 1531 1535 1538 1541 1544 1546 1548 1550 1552 1554 1555 1556 1557 1558 1558 1560 1561 1561 1562 1563 1564 1565 1566 1567 1568 1569
1467 1470 1473 1475 1477 1480 1483 1487 1490 1495 1499 1504 1508 1512 1517 1521 1525 1529 1532 1536 1539 1541 1544 1546 1548 1550 1552 1553 1554 1555 1556 1557 1558 1559 1560 1561 1562 1562 1563 1564 1565 1566 1567
1465 1468 1470 1473 1475 1478 1481 1485 1489 1493 1497 1502 1506 1510 1514 1519 1523 1527 1530 1533 1537 1539 1542 1544 1546 1548 1550 1551 1552 1553 1554 1555 1556 1557 1558 1559 1560 1561 1562 1563 1563 1564 1564
1462 1465 1468 1471 1473 1476 1479 1483 1487 1491 1496 1500 1504 1508 1512 1517 1521 1525 1528 1532 1535 1537 1540 1542 1544 1546 1548 1549 1550 1551 1552 1553 1554 1555 1556 1557 1558 1559 1560 1561 1561 1562 1562
1459 1463 1466 1469 1472 1475 1478 1482 1486 1489 1494 1498 1502 1506 1510 1515 1519 1522 1526 1529 1532 1535 1537 1540 1542 1544 1546 1547 1548 1549 1550 1551 1552 1554 1554 1555 1556 1557 1558 1558 1559 1559 1560
1457 1460 1464 1467 1471 1474 1477 1481 1484 1488 1492 1496 1499 1504 1508 1512 1516 1520 1523 1527 1530 1532 1535 1537 1539 1541 1543 1545 1546 1547 1548 1549 1550 1551 1552 1553 1554 1555 1555 1556 1556 1556 1557
1455 1458 1462 1466 1469 1472 1476 1479 1483 1486 1490 1494 1497 1501 1506 1510 1514 1517 1521 1524 1527 1529 1532 1534 1536 1538 1540 1542 1543 1544 1545 1547 1548 1549 1550 1551 1552 1552 1553 1553 1553 1554 1554
1454 1457 1461 1464 1468 1471 1474 1477 1481 1485 1489 1492 1496 1500 1504 1508 1511 1514 1518 1521 1524 1526 1528 1531 1533 1535 1537 1538 1540 1541 1542 1543 1544 1545 1546 1548 1549 1549 1550 1550 1550 1551 1551
1452 1455 1459 1463 1466 1470 1473 1477 1480 1484 1487 1490 1494 1497 1501 1504 1508 1511 1514 1517 1520 1523 1525 1527 1529 1531 1533 1535 1536 1537 1538 1539 1540 1542 1543 1544 1545 1546 1547 1547 1547 1547 1547
1450 1453 1456 1460 1464 1468 1471 1475 1478 1482 1485 1489 1492 1495 1498 1501 1505 1508 1511 1514 1517 1519 1522 1524 1526 1527 1529 1530 1532 1533 1534 1535 1536 1537 1538 1540 1541 1542 1542 1543 1543 1543 1543
1447 1451 1454 1458 1462 1465 1469 1473 1476 1480 1484 1487 1490 1493 1496 1499 1502 1505 1508 1510 1513 1515 1517 1519 1521 1522 1524 1525 1527 1528 1529 1530 1531 1532 1533 1535 1536 1537 1538 1538 1538 1539 1538
1446 1449 1452 1456 1459 1463 1467 1471 1474 1478 1482 1485 1488 1491 1494 1497 1500 1502 1504 1507 1509 1511 1513 1515 1516 1518 1519 1521 1522 1523 1524 1525 1526 1527 1528 1529 1530 1531 1532 1532 1533 1533 1533
1446 1449 1451 1455 1458 1461 1465 1468 1473 1476 1479 1483 1486 1489 1492 1494 1497 1499 1501 1503 1505 1507 1509 1510 1511 1513 1514 1515 1517 1518 1519 1520 1521 1522 1523 1524 1525 1526 1526 1526 1526 1527 1527
1446 1448 1451 1454 1457 1460 1464 1467 1470 1473 1476 1479 1482 1485 1488 1490 1493 1495 1497 1499 1501 1502 1504 1505 1506 1507 1508 1510 1511 1513 1513 1514 1515 1516 1517 1518 1519 1519 1520 1520 1520 1520 1520
1446 1449 1451 1454 1457 1460 1462 1465 1468 1471 1473 1476 1479 1482 1484 1487 1489 1491 1493 1495 1496 1498 1499 1501 1502 1503 1503 1504 1506 1507 1508 1509 1510 1510 1511 1512 1512 1512 1513 1513 1513 1512 1512
1448 1450 1452 1454 1457 1460 1462 1465 1467 1470 1472 1475 1478 1480 1482 1483 1485 1487 1488 1490 1491 1492 1494 1495 1496 1497 1498 1499 1500 1501 1502 1503 1504 1504 1505 1505 1505 1506 1506 1506 1506 1505 1505
1449 1451 1453 1455 1458 1460 1462 1464 1467 1469 1472 1474 1476 1478 1480 1481 1482 1484 1485 1486 1488 1488 1489 1490 1491 1492 1493 1494 1495 1496 1497 1497 1498 1498 1499 1499 1499 1499 1499 1499 1499 1499 1498
1452 1454 1455 1457 1460 1462 1464 1465 1468 1470 1472 1474 1475 1477 1478 1480 1481 1482 1483 1484 1484 1485 1486 1487 1487 1488 1489 1489 1490 1491 1491 1492 1492 1492 1492 1493 1493 1493 1493 1493 1493 1493 1492
1456 1458 1459 1461 1463 1465 1467 1468 1470 1472 1474 1475 1476 1478 1479 1480 1480 1481 1482 1482 1483 1483 1484 1484 1485 1485 1486 1486 1486 1487 1488 1488 1488 1488 1488 1489 1489 1489 1489 1489 1488 1487 1487
1460 1462 1463 1465 1467 1470 1471 1472 1474 1475 1476 1476 1477 1478 1480 1481 1481 1482 1482 1482 1483 1483 1483 1483 1484 1484 1484 1484 1484 1484 1484 1484 1484 1484 1485 1485 1484 1484 1484 1483 1483 1482 1481
1466 1467 1468 1470 1472 1474 1475 1476 1477 1478 1478 1479 1479 1480 1481 1482 1482 1482 1482 1482 1483 1483 1482 1482 1482 1482 1483 1482 1482 1482 1481 1481 1481 1481 1481 1481 1480 1479 1478 1477 1476 1475 1474